Total_Precipitation_Accumulation
0.45 0.26 0.24 0.26 0.33 0.22 0.15 0.21 0.19 0.15 0.16 0.09 0.10 0.14 0.25 0.11 0.08 0.10 0.33 0.37 0.63 0.56 0.46 0.50 0.53 0.49 0.52 0.54 0.52 0.47 0.45 0.47 0.46
0.49 0.31 0.15 0.15 0.21 0.27 0.25 0.19 0.14 0.15 0.14 0.11 0.12 0.15 0.11 0.07 0.08 0.13 0.22 0.48 0.64 0.50 0.36 0.37 0.37 0.41 0.53 0.59 0.65 0.78 0.79 0.76 0.62
0.52 0.31 0.17 0.13 0.12 0.19 0.35 0.37 0.29 0.24 0.15 0.15 0.19 0.16 0.13 0.13 0.07 0.09 0.16 0.38 0.26 0.24 0.24 0.22 0.25 0.28 0.33 0.46 0.61 0.61 0.57 0.63 0.72
0.48 0.31 0.19 0.15 0.19 0.27 0.38 0.45 0.39 0.33 0.27 0.26 0.21 0.16 0.12 0.09 0.04 0.04 0.09 0.26 0.19 0.21 0.20 0.21 0.24 0.25 0.24 0.37 0.43 0.42 0.43 0.51 0.54
0.35 0.20 0.14 0.25 0.28 0.34 0.40 0.42 0.40 0.39 0.32 0.30 0.22 0.15 0.16 0.07 0.02 0.02 0.08 0.18 0.16 0.19 0.23 0.27 0.30 0.35 0.38 0.38 0.35 0.35 0.37 0.47 0.55
0.19 0.08 0.11 0.21 0.29 0.36 0.42 0.40 0.33 0.27 0.21 0.22 0.15 0.14 0.07 0.02 0.02 0.02 0.05 0.08 0.13 0.16 0.21 0.22 0.31 0.38 0.41 0.39 0.33 0.30 0.30 0.27 0.33
0.17 0.12 0.13 0.16 0.25 0.28 0.35 0.32 0.32 0.20 0.09 0.05 0.08 0.07 0.02 0.01 0.01 0.03 0.05 0.17 0.24 0.22 0.22 0.28 0.23 0.26 0.30 0.29 0.26 0.27 0.28 0.32 0.38
0.15 0.17 0.11 0.12 0.14 0.13 0.14 0.13 0.14 0.11 0.12 0.11 0.07 0.05 0.07 0.08 0.08 0.12 0.12 0.24 0.31 0.30 0.32 0.34 0.34 0.28 0.27 0.29 0.31 0.33 0.32 0.34 0.37
0.18 0.18 0.16 0.15 0.16 0.14 0.13 0.16 0.14 0.17 0.16 0.14 0.16 0.10 0.09 0.12 0.14 0.14 0.20 0.17 0.28 0.29 0.40 0.49 0.48 0.58 0.54 0.49 0.47 0.34 0.32 0.32 0.27
0.26 0.24 0.25 0.25 0.43 0.26 0.16 0.19 0.24 0.25 0.25 0.26 0.26 0.26 0.17 0.19 0.20 0.18 0.27 0.23 0.19 0.32 0.39 0.49 0.63 0.73 0.70 0.92 0.82 0.56 0.38 0.28 0.23
0.40 0.40 0.40 0.39 0.44 0.52 0.45 0.40 0.41 0.36 0.34 0.31 0.35 0.35 0.39 0.37 0.31 0.26 0.30 0.33 0.21 0.27 0.38 0.44 0.60 0.81 0.80 0.89 1.04 0.99 0.74 0.52 0.40
0.29 0.31 0.31 0.30 0.49 0.70 0.72 0.59 0.48 0.41 0.50 0.47 0.53 0.47 0.46 0.41 0.39 0.39 0.31 0.31 0.28 0.23 0.29 0.44 0.57 0.72 0.85 1.00 1.15 1.34 1.43 1.47 1.25
0.23 0.19 0.21 0.36 0.55 0.57 0.59 0.64 0.55 0.44 0.42 0.38 0.52 0.54 0.51 0.47 0.42 0.42 0.46 0.32 0.28 0.32 0.21 0.33 0.58 0.88 0.91 1.39 1.58 1.75 1.51 1.86 1.93
0.35 0.31 0.24 0.39 0.38 0.40 0.50 0.55 0.58 0.75 0.72 0.52 0.43 0.46 0.53 0.55 0.57 0.52 0.48 0.51 0.49 0.32 0.28 0.30 0.43 0.83 1.35 1.54 1.78 2.11 2.37 1.93 2.12
0.30 0.42 0.55 0.58 0.56 0.49 0.61 0.72 0.75 0.80 0.89 1.02 0.97 0.78 0.51 0.47 0.56 0.68 0.71 0.63 0.79 1.03 0.87 0.77 0.89 0.73 0.86 1.42 1.74 2.37 3.74 4.39 2.89
0.46 0.36 0.46 0.58 0.59 0.67 0.65 0.66 0.69 0.78 0.90 1.22 1.20 1.16 1.32 1.30 1.06 0.96 1.08 1.11 1.05 1.28 1.96 2.34 2.61 2.50 2.26 1.40 1.49 2.33 4.23 5.48 4.97
0.82 0.50 0.51 0.49 0.43 0.44 0.50 0.56 0.66 0.60 0.76 0.84 0.89 0.92 0.87 0.92 1.07 1.36 1.73 1.88 2.19 2.03 2.15 2.16 2.65 2.76 2.93 2.38 2.10 1.90 2.09 2.87 3.09
1.41 1.31 1.22 1.00 0.82 0.80 0.78 0.96 1.38 1.23 1.11 1.32 1.39 1.04 0.84 0.68 0.78 0.94 0.86 1.08 1.13 1.20 1.26 1.08 1.01 0.91 0.86 0.84 1.00 1.53 1.28 1.44 1.79
2.29 2.14 1.90 1.67 1.44 1.38 1.45 1.50 1.63 1.76 1.72 1.67 1.45 1.17 0.96 0.79 0.55 0.54 0.72 0.63 0.67 0.59 0.59 0.40 0.31 0.31 0.39 0.40 0.35 0.71 1.61 1.91 2.21
2.19 2.28 2.47 2.41 2.63 2.69 2.51 2.30 2.03 1.82 1.79 1.64 1.43 1.30 1.23 0.98 0.77 0.51 0.44 0.38 0.32 0.26 0.22 0.19 0.21 0.22 0.29 0.35 0.50 0.70 1.01 1.34 1.44